Year,Month,Day,Hour,Minute,Value (Times are PST for temperature in C)
2015,06,26,00,00,19.70
2015,06,26,00,01,19.70
2015,06,26,00,02,19.70
2015,06,26,00,03,19.70
2015,06,26,00,04,19.70
2015,06,26,00,05,19.80
2015,06,26,00,06,19.80
2015,06,26,00,07,19.80
2015,06,26,00,08,19.80
2015,06,26,00,09,19.80
2015,06,26,00,10,19.80
2015,06,26,00,11,19.80
2015,06,26,00,12,19.80
2015,06,26,00,13,19.80
2015,06,26,00,14,19.80
2015,06,26,00,15,19.80
2015,06,26,00,16,19.80
2015,06,26,00,17,19.80
2015,06,26,00,18,19.90
2015,06,26,00,19,19.90
2015,06,26,00,20,19.90
2015,06,26,00,21,19.90
2015,06,26,00,22,19.90
2015,06,26,00,23,20.00
2015,06,26,00,24,20.00
2015,06,26,00,25,20.00
2015,06,26,00,26,20.00
2015,06,26,00,27,20.00
2015,06,26,00,28,20.00
2015,06,26,00,29,20.00
2015,06,26,00,30,20.00
2015,06,26,00,31,20.00
2015,06,26,00,32,20.00
2015,06,26,00,33,20.00
2015,06,26,00,34,20.00
2015,06,26,00,35,19.90
2015,06,26,00,36,19.90
2015,06,26,00,37,20.00
2015,06,26,00,38,19.90
2015,06,26,00,39,19.90
2015,06,26,00,40,19.90
2015,06,26,00,41,19.90
2015,06,26,00,42,19.90
2015,06,26,00,43,19.90
2015,06,26,00,44,19.90
2015,06,26,00,45,19.90
2015,06,26,00,46,19.90
2015,06,26,00,47,19.80
2015,06,26,00,48,19.80
2015,06,26,00,49,19.80
2015,06,26,00,50,19.80
2015,06,26,00,51,19.80
2015,06,26,00,52,19.70
2015,06,26,00,53,19.70
2015,06,26,00,54,19.70
2015,06,26,00,55,19.70
2015,06,26,00,56,19.80
2015,06,26,00,57,19.80
2015,06,26,00,58,19.80
2015,06,26,00,59,19.80
2015,06,26,01,00,19.80
2015,06,26,01,01,19.80
2015,06,26,01,02,19.80
2015,06,26,01,03,19.80
2015,06,26,01,04,19.80
2015,06,26,01,05,19.80
2015,06,26,01,06,19.80
2015,06,26,01,07,19.70
2015,06,26,01,08,19.70
2015,06,26,01,09,19.70
2015,06,26,01,10,19.70
2015,06,26,01,11,19.70
2015,06,26,01,12,19.70
2015,06,26,01,13,19.70
2015,06,26,01,14,19.60
2015,06,26,01,15,19.60
2015,06,26,01,16,19.60
2015,06,26,01,17,19.60
2015,06,26,01,18,19.60
2015,06,26,01,19,19.60
2015,06,26,01,20,19.50
2015,06,26,01,21,19.50
2015,06,26,01,22,19.60
2015,06,26,01,23,19.50
2015,06,26,01,24,19.60
2015,06,26,01,25,19.60
2015,06,26,01,26,19.60
2015,06,26,01,27,19.60
2015,06,26,01,28,19.60
2015,06,26,01,29,19.60
2015,06,26,01,30,19.60
2015,06,26,01,31,19.60
2015,06,26,01,32,19.60
2015,06,26,01,33,19.60
2015,06,26,01,34,19.60
2015,06,26,01,35,19.60
2015,06,26,01,36,19.60
2015,06,26,01,37,19.60
2015,06,26,01,38,19.60
2015,06,26,01,39,19.60
2015,06,26,01,40,19.60
2015,06,26,01,41,19.50
2015,06,26,01,42,19.50
2015,06,26,01,43,19.40
2015,06,26,01,44,19.40
2015,06,26,01,45,19.40
2015,06,26,01,46,19.40
2015,06,26,01,47,19.40
2015,06,26,01,48,19.40
2015,06,26,01,49,19.40
2015,06,26,01,50,19.40
2015,06,26,01,51,19.40
2015,06,26,01,52,19.40
2015,06,26,01,53,19.40
2015,06,26,01,54,19.40
2015,06,26,01,55,19.40
2015,06,26,01,56,19.40
2015,06,26,01,57,19.40
2015,06,26,01,58,19.40
2015,06,26,01,59,19.40
2015,06,26,02,00,19.40
2015,06,26,02,01,19.40
2015,06,26,02,02,19.40
2015,06,26,02,03,19.40
2015,06,26,02,04,19.40
2015,06,26,02,05,19.40
2015,06,26,02,06,19.40
2015,06,26,02,07,19.40
2015,06,26,02,08,19.40
2015,06,26,02,09,19.40
2015,06,26,02,10,19.40
2015,06,26,02,11,19.50
2015,06,26,02,12,19.50
2015,06,26,02,13,19.50
2015,06,26,02,14,19.50
2015,06,26,02,15,19.50
2015,06,26,02,16,19.60
2015,06,26,02,17,19.60
2015,06,26,02,18,19.60
2015,06,26,02,19,19.60
2015,06,26,02,20,19.60
2015,06,26,02,21,19.60
2015,06,26,02,22,19.60
2015,06,26,02,23,19.60
2015,06,26,02,24,19.60
2015,06,26,02,25,19.60
2015,06,26,02,26,19.60
2015,06,26,02,27,19.70
2015,06,26,02,28,19.60
2015,06,26,02,29,19.60
2015,06,26,02,30,19.70
2015,06,26,02,31,19.70
2015,06,26,02,32,19.60
2015,06,26,02,33,19.60
2015,06,26,02,34,19.60
2015,06,26,02,35,19.60
2015,06,26,02,36,19.60
2015,06,26,02,37,19.60
2015,06,26,02,38,19.60
2015,06,26,02,39,19.60
2015,06,26,02,40,19.60
2015,06,26,02,41,19.60
2015,06,26,02,42,19.60
2015,06,26,02,43,19.60
2015,06,26,02,44,19.60
2015,06,26,02,45,19.60
2015,06,26,02,46,19.60
2015,06,26,02,47,19.60
2015,06,26,02,48,19.60
2015,06,26,02,49,19.60
2015,06,26,02,50,19.60
2015,06,26,02,51,19.50
2015,06,26,02,52,19.50
2015,06,26,02,53,19.50
2015,06,26,02,54,19.50
2015,06,26,02,55,19.40
2015,06,26,02,56,19.40
2015,06,26,02,57,19.40
2015,06,26,02,58,19.40
2015,06,26,02,59,19.40
2015,06,26,03,00,19.40
2015,06,26,03,01,19.40
2015,06,26,03,02,19.30
2015,06,26,03,06,19.30
2015,06,26,03,07,19.30
2015,06,26,03,08,19.30
2015,06,26,03,09,19.30
2015,06,26,03,10,19.30
2015,06,26,03,11,19.30
2015,06,26,03,12,19.30
2015,06,26,03,13,19.30
2015,06,26,03,14,19.30
2015,06,26,03,15,19.30
2015,06,26,03,16,19.30
2015,06,26,03,17,19.30
2015,06,26,03,18,19.30
2015,06,26,03,19,19.30
2015,06,26,03,20,19.20
2015,06,26,03,21,19.20
2015,06,26,03,22,19.20
2015,06,26,03,23,19.20
2015,06,26,03,24,19.20
2015,06,26,03,25,19.20
2015,06,26,03,26,19.20
2015,06,26,03,27,19.20
2015,06,26,03,28,19.10
2015,06,26,03,29,19.10
2015,06,26,03,30,19.10
2015,06,26,03,31,19.10
2015,06,26,03,32,19.10
2015,06,26,03,33,19.10
2015,06,26,03,34,19.10
2015,06,26,03,35,19.00
2015,06,26,03,36,19.00
2015,06,26,03,37,19.00
2015,06,26,03,38,19.00
2015,06,26,03,39,18.90
2015,06,26,03,40,18.90
2015,06,26,03,41,18.90
2015,06,26,03,42,18.90
2015,06,26,03,43,18.90
2015,06,26,03,44,18.90
2015,06,26,03,45,18.80
2015,06,26,03,46,18.80
2015,06,26,03,47,18.80
2015,06,26,03,48,18.80
2015,06,26,03,49,18.80
2015,06,26,03,50,18.70
2015,06,26,03,51,18.70
2015,06,26,03,52,18.70
2015,06,26,03,53,18.70
2015,06,26,03,54,18.60
2015,06,26,03,55,18.60
2015,06,26,03,56,18.60
2015,06,26,03,57,18.60
2015,06,26,03,58,18.60
2015,06,26,03,59,18.60
2015,06,26,04,00,18.50
2015,06,26,04,01,18.50
2015,06,26,04,02,18.50
2015,06,26,04,03,18.50
2015,06,26,04,04,18.40
2015,06,26,04,05,18.40
2015,06,26,04,06,18.40
2015,06,26,04,07,18.40
2015,06,26,04,08,18.40
2015,06,26,04,09,18.40
2015,06,26,04,10,18.40
2015,06,26,04,11,18.50
2015,06,26,04,12,18.50
2015,06,26,04,13,18.50
2015,06,26,04,14,18.50
2015,06,26,04,15,18.40
2015,06,26,04,16,18.50
2015,06,26,04,17,18.50
2015,06,26,04,18,18.50
2015,06,26,04,19,18.50
2015,06,26,04,20,18.50
2015,06,26,04,21,18.50
2015,06,26,04,22,18.50
2015,06,26,04,23,18.50
2015,06,26,04,24,18.50
2015,06,26,04,25,18.40
2015,06,26,04,26,18.50
2015,06,26,04,27,18.50
2015,06,26,04,28,18.50
2015,06,26,04,29,18.50
2015,06,26,04,30,18.40
2015,06,26,04,31,18.40
2015,06,26,04,32,18.40
2015,06,26,04,33,18.40
2015,06,26,04,34,18.40
2015,06,26,04,35,18.40
2015,06,26,04,36,18.40
2015,06,26,04,37,18.30
2015,06,26,04,38,18.30
2015,06,26,04,39,18.30
2015,06,26,04,40,18.30
2015,06,26,04,41,18.30
2015,06,26,04,42,18.30
2015,06,26,04,43,18.20
2015,06,26,04,44,18.20
2015,06,26,04,45,18.20
2015,06,26,04,46,18.20
2015,06,26,04,47,18.20
2015,06,26,04,48,18.20
2015,06,26,04,49,18.20
2015,06,26,04,50,18.20
2015,06,26,04,51,18.20
2015,06,26,04,52,18.10
2015,06,26,04,53,18.10
2015,06,26,04,54,18.10
2015,06,26,04,55,18.10
2015,06,26,04,56,18.10
2015,06,26,04,57,18.10
2015,06,26,04,58,18.10
2015,06,26,04,59,18.10
2015,06,26,05,00,18.00
2015,06,26,05,01,18.00
2015,06,26,05,02,18.00
2015,06,26,05,03,18.00
2015,06,26,05,04,18.00
2015,06,26,05,05,18.00
2015,06,26,05,06,17.90
2015,06,26,05,07,17.90
2015,06,26,05,08,17.90
2015,06,26,05,09,17.90
2015,06,26,05,10,17.90
2015,06,26,05,11,17.90
2015,06,26,05,12,17.90
2015,06,26,05,13,17.90
2015,06,26,05,14,17.90
2015,06,26,05,15,17.90
2015,06,26,05,16,17.90
2015,06,26,05,17,17.90
2015,06,26,05,18,17.80
2015,06,26,05,19,17.80
2015,06,26,05,20,17.80
2015,06,26,05,21,17.80
2015,06,26,05,22,17.80
2015,06,26,05,23,17.80
2015,06,26,05,24,17.80
2015,06,26,05,25,17.80
2015,06,26,05,26,17.80
2015,06,26,05,27,17.80
2015,06,26,05,28,17.80
2015,06,26,05,29,17.80
2015,06,26,05,30,17.80
2015,06,26,05,31,17.80
2015,06,26,05,32,17.80
2015,06,26,05,33,17.80
2015,06,26,05,34,17.70
2015,06,26,05,35,17.70
2015,06,26,05,36,17.70
2015,06,26,05,37,17.70
2015,06,26,05,38,17.70
2015,06,26,05,39,17.70
2015,06,26,05,40,17.70
2015,06,26,05,41,17.70
2015,06,26,05,42,17.70
2015,06,26,05,43,17.70
2015,06,26,05,44,17.70
2015,06,26,05,45,17.70
2015,06,26,05,46,17.70
2015,06,26,05,47,17.70
2015,06,26,05,48,17.70
2015,06,26,05,49,17.70
2015,06,26,05,50,17.80
2015,06,26,05,51,17.80
2015,06,26,05,52,17.80
2015,06,26,05,53,17.80
2015,06,26,05,54,17.80
2015,06,26,05,55,17.80
2015,06,26,05,56,17.80
2015,06,26,05,57,17.80
2015,06,26,05,58,17.80
2015,06,26,05,59,17.80
2015,06,26,06,00,17.80
2015,06,26,06,01,17.80
2015,06,26,06,02,17.90
2015,06,26,06,03,17.90
2015,06,26,06,04,17.90
2015,06,26,06,05,17.90
2015,06,26,06,06,17.90
2015,06,26,06,07,17.90
2015,06,26,06,08,17.90
2015,06,26,06,09,17.90
2015,06,26,06,10,18.00
2015,06,26,06,11,18.00
2015,06,26,06,12,18.00
2015,06,26,06,13,18.00
2015,06,26,06,14,18.00
2015,06,26,06,15,18.10
2015,06,26,06,16,18.10
2015,06,26,06,17,18.10
2015,06,26,06,18,18.10
2015,06,26,06,19,18.10
2015,06,26,06,20,18.10
2015,06,26,06,21,18.10
2015,06,26,06,22,18.10
2015,06,26,06,23,18.20
2015,06,26,06,24,18.20
2015,06,26,06,25,18.20
2015,06,26,06,26,18.20
2015,06,26,06,27,18.20
2015,06,26,06,28,18.20
2015,06,26,06,29,18.20
2015,06,26,06,30,18.30
2015,06,26,06,31,18.30
2015,06,26,06,32,18.30
2015,06,26,06,33,18.30
2015,06,26,06,34,18.30
2015,06,26,06,35,18.30
2015,06,26,06,36,18.30
2015,06,26,06,37,18.30
2015,06,26,06,38,18.30
2015,06,26,06,39,18.30
2015,06,26,06,40,18.30
2015,06,26,06,41,18.30
2015,06,26,06,42,18.30
2015,06,26,06,43,18.40
2015,06,26,06,44,18.40
2015,06,26,06,45,18.40
2015,06,26,06,46,18.40
2015,06,26,06,47,18.40
2015,06,26,06,48,18.40
2015,06,26,06,49,18.40
2015,06,26,06,50,18.40
2015,06,26,06,51,18.40
2015,06,26,06,52,18.40
2015,06,26,06,53,18.40
2015,06,26,06,54,18.40
2015,06,26,06,55,18.40
2015,06,26,06,56,18.40
2015,06,26,06,57,18.40
2015,06,26,06,58,18.40
2015,06,26,06,59,18.40
2015,06,26,07,00,18.40
2015,06,26,07,01,18.40
2015,06,26,07,02,18.40
2015,06,26,07,03,18.30
2015,06,26,07,04,18.30
2015,06,26,07,05,18.30
2015,06,26,07,06,18.40
2015,06,26,07,07,18.40
2015,06,26,07,08,18.40
2015,06,26,07,09,18.40
2015,06,26,07,10,18.40
2015,06,26,07,11,18.40
2015,06,26,07,12,18.40
2015,06,26,07,13,18.40
2015,06,26,07,14,18.40
2015,06,26,07,15,18.40
2015,06,26,07,16,18.40
2015,06,26,07,17,18.40
2015,06,26,07,18,18.40
2015,06,26,07,19,18.50
2015,06,26,07,20,18.50
2015,06,26,07,21,18.50
2015,06,26,07,22,18.50
2015,06,26,07,23,18.50
2015,06,26,07,24,18.60
2015,06,26,07,25,18.60
2015,06,26,07,26,18.60
2015,06,26,07,27,18.70
2015,06,26,07,28,18.80
2015,06,26,07,29,18.80
2015,06,26,07,30,18.80
2015,06,26,07,31,18.90
2015,06,26,07,32,19.00
2015,06,26,07,33,19.00
2015,06,26,07,34,19.10
2015,06,26,07,35,19.10
2015,06,26,07,36,19.20
2015,06,26,07,37,19.10
2015,06,26,07,38,19.10
2015,06,26,07,39,19.10
2015,06,26,07,40,19.10
2015,06,26,07,41,19.10
2015,06,26,07,42,19.10
2015,06,26,07,43,19.10
2015,06,26,07,44,19.00
2015,06,26,07,45,19.00
2015,06,26,07,46,19.10
2015,06,26,07,47,19.10
2015,06,26,07,48,19.20
2015,06,26,07,49,19.20
2015,06,26,07,50,19.20
2015,06,26,07,51,19.30
2015,06,26,07,52,19.30
2015,06,26,07,53,19.20
2015,06,26,07,54,19.20
2015,06,26,07,55,19.20
2015,06,26,07,56,19.20
2015,06,26,07,57,19.20
2015,06,26,07,58,19.20
2015,06,26,07,59,19.20
2015,06,26,08,00,19.20
2015,06,26,08,01,19.20
2015,06,26,08,02,19.20
2015,06,26,08,03,19.20
2015,06,26,08,04,19.20
2015,06,26,08,05,19.20
2015,06,26,08,06,19.20
2015,06,26,08,07,19.20
2015,06,26,08,08,19.30
2015,06,26,08,09,19.30
2015,06,26,08,10,19.30
2015,06,26,08,11,19.30
2015,06,26,08,12,19.40
2015,06,26,08,13,19.40
2015,06,26,08,14,19.40
2015,06,26,08,15,19.40
2015,06,26,08,16,19.40
2015,06,26,08,17,19.40
2015,06,26,08,18,19.40
2015,06,26,08,19,19.40
2015,06,26,08,20,19.40
2015,06,26,08,21,19.50
2015,06,26,08,22,19.50
2015,06,26,08,23,19.60
2015,06,26,08,24,19.60
2015,06,26,08,25,19.50
2015,06,26,08,26,19.50
2015,06,26,08,27,19.60
2015,06,26,08,28,19.60
2015,06,26,08,29,19.60
2015,06,26,08,30,19.60
2015,06,26,08,31,19.60
2015,06,26,08,32,19.60
2015,06,26,08,33,19.70
2015,06,26,08,34,19.70
2015,06,26,08,35,19.70
2015,06,26,08,36,19.70
2015,06,26,08,37,19.70
2015,06,26,08,38,19.70
2015,06,26,08,39,19.70
2015,06,26,08,40,19.70
2015,06,26,08,41,19.70
2015,06,26,08,42,19.80
2015,06,26,08,43,19.80
2015,06,26,08,44,19.80
2015,06,26,08,45,19.80
2015,06,26,08,46,19.80
2015,06,26,08,47,19.80
2015,06,26,08,48,19.70
2015,06,26,08,49,19.70
2015,06,26,08,50,19.70
2015,06,26,08,51,19.60
2015,06,26,08,52,19.60
2015,06,26,08,53,19.60
2015,06,26,08,54,19.50
2015,06,26,08,55,19.50
2015,06,26,08,56,19.50
2015,06,26,08,57,19.50
2015,06,26,08,58,19.50
2015,06,26,08,59,19.60
2015,06,26,09,00,19.50
2015,06,26,09,01,19.50
2015,06,26,09,02,19.40
2015,06,26,09,03,19.30
2015,06,26,09,04,19.30
2015,06,26,09,05,19.30
2015,06,26,09,06,19.20
2015,06,26,09,07,19.20
2015,06,26,09,08,19.20
2015,06,26,09,09,19.20
2015,06,26,09,10,19.30
2015,06,26,09,11,19.30
2015,06,26,09,12,19.30
2015,06,26,09,13,19.30
2015,06,26,09,14,19.30
2015,06,26,09,15,19.30
2015,06,26,09,16,19.20
2015,06,26,09,17,19.20
2015,06,26,09,18,19.30
2015,06,26,09,19,19.30
2015,06,26,09,20,19.30
2015,06,26,09,21,19.40
2015,06,26,09,22,19.50
2015,06,26,09,23,19.60
2015,06,26,09,24,19.60
2015,06,26,09,25,19.60
2015,06,26,09,26,19.60
2015,06,26,09,27,19.60
2015,06,26,09,28,19.60
2015,06,26,09,29,19.50
2015,06,26,09,30,19.60
2015,06,26,09,31,19.60
2015,06,26,09,32,19.50
2015,06,26,09,33,19.40
2015,06,26,09,34,19.40
2015,06,26,09,35,19.40
2015,06,26,09,36,19.50
2015,06,26,09,37,19.60
2015,06,26,09,38,19.60
2015,06,26,09,39,19.70
2015,06,26,09,40,19.70
2015,06,26,09,41,19.80
2015,06,26,09,42,19.90
2015,06,26,09,43,19.90
2015,06,26,09,44,20.00
2015,06,26,09,45,20.20
2015,06,26,09,46,20.30
2015,06,26,09,47,20.40
2015,06,26,09,48,20.50
2015,06,26,09,49,20.50
2015,06,26,09,50,20.60
2015,06,26,09,51,20.70
2015,06,26,09,52,20.80
2015,06,26,09,53,20.80
2015,06,26,09,54,20.80
2015,06,26,09,55,20.80
2015,06,26,09,56,20.80
2015,06,26,09,57,20.90
2015,06,26,09,58,20.80
2015,06,26,09,59,20.80
2015,06,26,10,00,20.80
2015,06,26,10,01,20.90
2015,06,26,10,02,20.90
2015,06,26,10,03,21.00
2015,06,26,10,04,21.00
2015,06,26,10,05,21.00
2015,06,26,10,06,21.00
2015,06,26,10,07,21.00
2015,06,26,10,08,21.10
2015,06,26,10,09,21.20
2015,06,26,10,10,21.20
2015,06,26,10,11,21.20
2015,06,26,10,12,21.20
2015,06,26,10,13,21.20
2015,06,26,10,14,21.30
2015,06,26,10,15,21.30
2015,06,26,10,16,21.30
2015,06,26,10,17,21.40
2015,06,26,10,18,21.40
2015,06,26,10,19,21.50
2015,06,26,10,20,21.60
2015,06,26,10,21,21.60
2015,06,26,10,22,21.60
2015,06,26,10,23,21.60
2015,06,26,10,24,21.50
2015,06,26,10,25,21.40
2015,06,26,10,26,21.40
2015,06,26,10,27,21.40
2015,06,26,10,28,21.40
2015,06,26,10,29,21.40
2015,06,26,10,30,21.50
2015,06,26,10,31,21.50
2015,06,26,10,32,21.60
2015,06,26,10,33,21.60
2015,06,26,10,34,21.60
2015,06,26,10,35,21.50
2015,06,26,10,36,21.40
2015,06,26,10,37,21.50
2015,06,26,10,38,21.50
2015,06,26,10,39,21.40
2015,06,26,10,40,21.30
2015,06,26,10,41,21.30
2015,06,26,10,42,21.30
2015,06,26,10,43,21.40
2015,06,26,10,44,21.50
2015,06,26,10,45,21.50
2015,06,26,10,46,21.60
2015,06,26,10,47,21.70
2015,06,26,10,48,21.80
2015,06,26,10,49,21.80
2015,06,26,10,50,21.90
2015,06,26,10,51,22.00
2015,06,26,10,52,22.00
2015,06,26,10,53,22.10
2015,06,26,10,54,22.20
2015,06,26,10,55,22.20
2015,06,26,10,56,22.20
2015,06,26,10,57,22.20
2015,06,26,10,58,22.10
2015,06,26,10,59,22.20
2015,06,26,11,00,22.20
2015,06,26,11,01,22.20
2015,06,26,11,02,22.30
2015,06,26,11,03,22.30
2015,06,26,11,04,22.30
2015,06,26,11,05,22.40
2015,06,26,11,06,22.50
2015,06,26,11,07,22.50
2015,06,26,11,08,22.60
2015,06,26,11,09,22.60
2015,06,26,11,10,22.60
2015,06,26,11,11,22.70
2015,06,26,11,12,22.70
2015,06,26,11,13,22.80
2015,06,26,11,14,22.80
2015,06,26,11,15,22.70
2015,06,26,11,16,22.60
2015,06,26,11,17,22.60
2015,06,26,11,18,22.60
2015,06,26,11,19,22.60
2015,06,26,11,20,22.60
2015,06,26,11,21,22.60
2015,06,26,11,22,22.60
2015,06,26,11,23,22.70
2015,06,26,11,24,22.60
2015,06,26,11,25,22.60
2015,06,26,11,26,22.60
2015,06,26,11,27,22.50
2015,06,26,11,28,22.50
2015,06,26,11,29,22.50
2015,06,26,11,30,22.60
2015,06,26,11,31,22.60
2015,06,26,11,32,22.60
2015,06,26,11,33,22.60
2015,06,26,11,34,22.60
2015,06,26,11,35,22.60
2015,06,26,11,36,22.60
2015,06,26,11,37,22.70
2015,06,26,11,38,22.70
2015,06,26,11,39,22.70
2015,06,26,11,40,22.80
2015,06,26,11,41,22.80
2015,06,26,11,42,22.90
2015,06,26,11,43,22.90
2015,06,26,11,44,22.90
2015,06,26,11,45,22.90
2015,06,26,11,46,22.80
2015,06,26,11,47,22.70
2015,06,26,11,48,22.70
2015,06,26,11,49,22.70
2015,06,26,11,50,22.80
2015,06,26,11,51,22.80
2015,06,26,11,52,22.80
2015,06,26,11,53,22.80
2015,06,26,11,54,22.80
2015,06,26,11,55,22.90
2015,06,26,11,56,22.90
2015,06,26,11,57,22.90
2015,06,26,11,58,23.00
2015,06,26,11,59,23.10
2015,06,26,12,00,23.10
2015,06,26,12,01,23.00
2015,06,26,12,02,22.90
2015,06,26,12,03,22.90
2015,06,26,12,04,23.00
2015,06,26,12,05,23.00
2015,06,26,12,06,23.20
2015,06,26,12,07,23.20
2015,06,26,12,08,23.30
2015,06,26,12,09,23.30
2015,06,26,12,10,23.20
2015,06,26,12,11,23.20
2015,06,26,12,12,23.20
2015,06,26,12,13,23.20
2015,06,26,12,14,23.20
2015,06,26,12,15,23.20
2015,06,26,12,16,23.20
2015,06,26,12,17,23.30
2015,06,26,12,18,23.30
2015,06,26,12,19,23.30
2015,06,26,12,20,23.30
2015,06,26,12,21,23.30
2015,06,26,12,22,23.20
2015,06,26,12,23,23.10
2015,06,26,12,24,22.90
2015,06,26,12,25,22.80
2015,06,26,12,26,22.70
2015,06,26,12,27,22.70
2015,06,26,12,28,22.70
2015,06,26,12,29,22.70
2015,06,26,12,30,22.70
2015,06,26,12,31,22.70
2015,06,26,12,32,22.80
2015,06,26,12,33,22.80
2015,06,26,12,34,22.90
2015,06,26,12,35,22.90
2015,06,26,12,36,22.90
2015,06,26,12,37,22.90
2015,06,26,12,38,22.80
2015,06,26,12,39,22.80
2015,06,26,12,40,22.80
2015,06,26,12,41,22.90
2015,06,26,12,42,22.90
2015,06,26,12,43,22.90
2015,06,26,12,44,23.00
2015,06,26,12,45,22.90
2015,06,26,12,46,23.00
2015,06,26,12,47,23.10
2015,06,26,12,48,23.20
2015,06,26,12,49,23.20
2015,06,26,12,50,23.20
2015,06,26,12,51,23.20
2015,06,26,12,52,23.10
2015,06,26,12,53,23.10
2015,06,26,12,54,23.10
2015,06,26,12,55,23.20
2015,06,26,12,56,23.20
2015,06,26,12,57,23.30
2015,06,26,12,58,23.40
2015,06,26,12,59,23.50
2015,06,26,13,00,23.60
2015,06,26,13,01,23.70
2015,06,26,13,02,23.80
2015,06,26,13,03,23.70
2015,06,26,13,04,23.70
2015,06,26,13,05,23.60
2015,06,26,13,06,23.60
2015,06,26,13,07,23.50
2015,06,26,13,08,23.50
2015,06,26,13,09,23.40
2015,06,26,13,10,23.50
2015,06,26,13,11,23.60
2015,06,26,13,12,23.70
2015,06,26,13,13,23.80
2015,06,26,13,14,23.80
2015,06,26,13,15,23.90
2015,06,26,13,16,24.00
2015,06,26,13,17,24.10
2015,06,26,13,18,24.20
2015,06,26,13,19,24.10
2015,06,26,13,20,24.00
2015,06,26,13,21,23.90
2015,06,26,13,22,23.90
2015,06,26,13,23,23.90
2015,06,26,13,24,24.00
2015,06,26,13,25,24.10
2015,06,26,13,26,24.10
2015,06,26,13,27,24.20
2015,06,26,13,28,24.30
2015,06,26,13,29,24.40
2015,06,26,13,30,24.50
2015,06,26,13,31,24.40
2015,06,26,13,32,24.50
2015,06,26,13,33,24.60
2015,06,26,13,34,24.80
2015,06,26,13,35,24.80
2015,06,26,13,36,24.80
2015,06,26,13,37,24.80
2015,06,26,13,38,24.80
2015,06,26,13,39,24.80
2015,06,26,13,40,24.80
2015,06,26,13,41,24.90
2015,06,26,13,42,24.90
2015,06,26,13,43,25.00
2015,06,26,13,44,25.10
2015,06,26,13,45,25.20
2015,06,26,13,46,25.30
2015,06,26,13,47,25.40
2015,06,26,13,48,25.50
2015,06,26,13,49,25.60
2015,06,26,13,50,25.60
2015,06,26,13,51,25.70
2015,06,26,13,52,25.70
2015,06,26,13,53,25.80
2015,06,26,13,54,25.80
2015,06,26,13,55,25.80
2015,06,26,13,56,25.70
2015,06,26,13,57,25.70
2015,06,26,13,58,25.70
2015,06,26,13,59,25.70
2015,06,26,14,00,25.50
2015,06,26,14,01,25.40
2015,06,26,14,02,25.30
2015,06,26,14,03,25.30
2015,06,26,14,04,25.30
2015,06,26,14,05,25.30
2015,06,26,14,06,25.30
2015,06,26,14,07,25.50
2015,06,26,14,08,25.60
2015,06,26,14,09,25.70
2015,06,26,14,10,25.60
2015,06,26,14,11,25.40
2015,06,26,14,12,25.30
2015,06,26,14,13,25.20
2015,06,26,14,14,25.10
2015,06,26,14,15,25.10
2015,06,26,14,16,25.10
2015,06,26,14,17,25.10
2015,06,26,14,18,25.20
2015,06,26,14,19,25.40
2015,06,26,14,20,25.50
2015,06,26,14,21,25.60
2015,06,26,14,22,25.70
2015,06,26,14,23,25.70
2015,06,26,14,24,25.60
2015,06,26,14,25,25.60
2015,06,26,14,26,25.60
2015,06,26,14,27,25.50
2015,06,26,14,28,25.40
2015,06,26,14,29,25.40
2015,06,26,14,30,25.40
2015,06,26,14,31,25.30
2015,06,26,14,32,25.20
2015,06,26,14,33,25.10
2015,06,26,14,34,25.00
2015,06,26,14,35,25.00
2015,06,26,14,36,25.10
2015,06,26,14,37,25.00
2015,06,26,14,38,24.90
2015,06,26,14,39,24.80
2015,06,26,14,40,24.80
2015,06,26,14,41,24.80
2015,06,26,14,42,24.80
2015,06,26,14,43,24.90
2015,06,26,14,44,25.00
2015,06,26,14,45,25.10
2015,06,26,14,46,25.10
2015,06,26,14,47,25.20
2015,06,26,14,48,25.30
2015,06,26,14,49,25.30
2015,06,26,14,50,25.20
2015,06,26,14,51,25.10
2015,06,26,14,52,25.10
2015,06,26,14,53,25.10
2015,06,26,14,54,25.10
2015,06,26,14,55,25.20
2015,06,26,14,56,25.20
2015,06,26,14,57,25.20
2015,06,26,14,58,25.40
2015,06,26,14,59,25.40
2015,06,26,15,00,25.40
2015,06,26,15,01,25.40
2015,06,26,15,02,25.30
2015,06,26,15,03,25.30
2015,06,26,15,04,25.20
2015,06,26,15,05,25.20
2015,06,26,15,06,25.20
2015,06,26,15,07,25.20
2015,06,26,15,08,25.30
2015,06,26,15,09,25.40
2015,06,26,15,10,25.50
2015,06,26,15,11,25.60
2015,06,26,15,12,25.80
2015,06,26,15,13,25.90
2015,06,26,15,14,25.90
2015,06,26,15,15,25.90
2015,06,26,15,16,25.90
2015,06,26,15,17,26.00
2015,06,26,15,18,26.00
2015,06,26,15,19,26.10
2015,06,26,15,20,26.20
2015,06,26,15,21,26.20
2015,06,26,15,22,26.30
2015,06,26,15,23,26.40
2015,06,26,15,24,26.40
2015,06,26,15,25,26.50
2015,06,26,15,26,26.60
2015,06,26,15,27,26.60
2015,06,26,15,28,26.70
2015,06,26,15,29,26.70
2015,06,26,15,30,26.70
2015,06,26,15,31,26.70
2015,06,26,15,32,26.60
2015,06,26,15,33,26.60
2015,06,26,15,34,26.50
2015,06,26,15,35,26.50
2015,06,26,15,36,26.60
2015,06,26,15,37,26.60
2015,06,26,15,38,26.70
2015,06,26,15,39,26.70
2015,06,26,15,40,26.70
2015,06,26,15,41,26.70
2015,06,26,15,42,26.70
2015,06,26,15,43,26.70
2015,06,26,15,44,26.70
2015,06,26,15,45,26.70
2015,06,26,15,46,26.70
2015,06,26,15,47,26.70
2015,06,26,15,48,26.70
2015,06,26,15,49,26.70
2015,06,26,15,50,26.80
2015,06,26,15,51,26.90
2015,06,26,15,52,27.10
2015,06,26,15,53,27.10
2015,06,26,15,54,27.10
2015,06,26,15,55,27.20
2015,06,26,15,56,27.30
2015,06,26,15,57,27.40
2015,06,26,15,58,27.50
2015,06,26,15,59,27.50
2015,06,26,16,00,27.40
2015,06,26,16,01,27.40
2015,06,26,16,02,27.30
2015,06,26,16,03,27.30
2015,06,26,16,04,27.30
2015,06,26,16,05,27.30
2015,06,26,16,06,27.30
2015,06,26,16,07,27.30
2015,06,26,16,08,27.40
2015,06,26,16,09,27.40
2015,06,26,16,10,27.50
2015,06,26,16,11,27.50
2015,06,26,16,12,27.60
2015,06,26,16,13,27.70
2015,06,26,16,14,27.70
2015,06,26,16,15,27.80
2015,06,26,16,16,27.90
2015,06,26,16,17,27.90
2015,06,26,16,18,28.00
2015,06,26,16,19,28.10
2015,06,26,16,20,28.20
2015,06,26,16,21,28.20
2015,06,26,16,22,28.10
2015,06,26,16,23,28.10
2015,06,26,16,24,28.00
2015,06,26,16,25,27.90
2015,06,26,16,26,27.80
2015,06,26,16,27,27.80
2015,06,26,16,28,27.70
2015,06,26,16,29,27.80
2015,06,26,16,30,27.80
2015,06,26,16,31,27.80
2015,06,26,16,32,27.80
2015,06,26,16,33,27.70
2015,06,26,16,34,27.70
2015,06,26,16,35,27.70
2015,06,26,16,36,27.80
2015,06,26,16,37,27.80
2015,06,26,16,38,27.80
2015,06,26,16,39,27.90
2015,06,26,16,40,28.00
2015,06,26,16,41,28.00
2015,06,26,16,42,28.00
2015,06,26,16,43,28.00
2015,06,26,16,44,28.10
2015,06,26,16,45,28.10
2015,06,26,16,46,28.10
2015,06,26,16,47,28.00
2015,06,26,16,48,28.00
2015,06,26,16,49,28.00
2015,06,26,16,50,28.10
2015,06,26,16,51,28.10
2015,06,26,16,52,28.10
2015,06,26,16,53,28.10
2015,06,26,16,54,28.10
2015,06,26,16,55,28.00
2015,06,26,16,56,28.00
2015,06,26,16,57,27.90
2015,06,26,16,58,27.80
2015,06,26,16,59,27.80
2015,06,26,17,00,27.80
2015,06,26,17,01,27.70
2015,06,26,17,02,27.80
2015,06,26,17,03,27.80
2015,06,26,17,04,27.80
2015,06,26,17,05,27.80
2015,06,26,17,06,27.90
2015,06,26,17,07,27.90
2015,06,26,17,08,27.90
2015,06,26,17,09,27.90
2015,06,26,17,10,27.90
2015,06,26,17,11,27.90
2015,06,26,17,12,27.90
2015,06,26,17,13,27.90
2015,06,26,17,14,27.80
2015,06,26,17,15,27.80
2015,06,26,17,16,27.90
2015,06,26,17,17,27.90
2015,06,26,17,18,28.00
2015,06,26,17,19,28.10
2015,06,26,17,20,28.20
2015,06,26,17,21,28.20
2015,06,26,17,22,28.30